Powrót do katalogu

COSMOS 1217 DEB

LostHEO
NORAD 41117·DEBRIS·🇷🇺 Russia

Wystrzelony Oct 24, 1980 z Plesetsk Cosmodrome

Loading…

Następne Przeloty (najbliższe 24 godziny)

TLE

NieaktualneSource: Space-Track

Epoka: Jan 22, 2025, 06:43 UTC

1 41117U 80085N   25022.28035137  .00000355  00000-0  00000+0 0  9997
2 41117  68.0313  36.6451 6609282 312.9702   7.8472  1.99439097 81276

Śledź COSMOS 1217 DEB w czasie rzeczywistym z AllMySat

Download on the App Store